A/2019 G3

Japanese version
Home page
Updated on May 20, 2019

---------------------------------------------------------------------

* Profile

Discovery Date April 4, 2019
Magnitude 21.6 mag
Discoverer Pan-STARRS 1 telescope (Haleakala)

* Orbital Elements

Epoch 2018 Nov. 18.0 TT = JDT 2458440.5
T 2018 Dec. 3.45058 TT                                  MPCW
q   2.8542955            (2000.0)            P               Q
n   0.01383993     Peri.  161.83849     -0.39509584     -0.86810406
a  17.1809338      Node    49.75946     -0.88409097     +0.44818277
e   0.8338684      Incl.  156.81802     -0.24956448     -0.21337187
P  71.21
From 23 observations 2019 Apr. 4-May 6, mean residual 0".3.

* Magnitudes Graph

        H = 17.0  G = 0.15

---------------------------------------------------------------------

The orbital elements are published on M.P.E.C. 2019-J142.
The magnitudes graphs are made with Comet for Windows.

---------------------------------------------------------------------

Copyright(C) Seiichi Yoshida (comet@aerith.net). All rights reserved.